Regional Weather Roundup
Issued by NWS

Home | Current Version | Previous Version | Text Only | Print | Product List | Glossary On
Versions: 1 2 3 4 5 6 7 8 9 10 11 12 13 14 15 16 17 18 19 20 21 22 23 24 25 26 27 28 29 30 31 32 33 34 35 36 37 38 39 40 41 42 43 44 45 46 47 48 49 50
000
ASUS42 KTBW 282310
RWRFL
FLORIDA REGIONAL WEATHER ROUNDUP
NATIONAL WEATHER SERVICE TAMPA BAY RUSKIN FL
700 PM EDT MON JUL 28 2014

NOTE: "FAIR" INDICATES FEW OR NO CLOUDS BELOW 12,000 FEET WITH NO
SIGNIFICANT WEATHER AND/OR OBSTRUCTIONS TO VISIBILITY.


FLZ001>010-012>015-112-114-115-290000-
PANHANDLE FLORIDA

CITY           SKY/WX    TMP DP  RH WIND       PRES   REMARKS
PENSACOLA      CLOUDY    83  71  67 W9        29.94F
PENSACOLA NAS  CLOUDY    86  78  77 W3        29.94F THUNDER HX  98
MILTON NAS     TSTM      77  71  82 W14G25    29.96R
CRESTVIEW      CLOUDY    77  75  93 CALM      29.94F
DUKE FIELD     PTSUNNY   80  73  77 VRB2      29.95R THUNDER
VALPARAISO     CLOUDY    87  77  73 W7        29.92F THUNDER HX  98
MARY ESTHER    CLOUDY    84  68  58 SW9G17    29.92F
TRI COUNTY     TSTM      86  77  74 MISG      29.95R HX  97
PANAMA CITY    FAIR      86  77  74 SW12G20   29.93R HX  97
TYNDALL AFB    SUNNY     86  80  82 W14       29.96R HX 100
APALACHICOLA   SUNNY     85  77  77 W13G23    29.94F HX  95

STATION/POSITION SKY/WX   TEMP    WIND        PRES    WAVE   SWELL
                          AIR SEA DIR/SP/G            HT/PER HT/PER
                          (F)     (DEG/KT/KT) (MB)    (FT/S) (FT/S)
30.1N   87.6W              85 84  250/ 17/ 21 1014.1F   3/ 4
29.2N   88.2W              86 87  260/ 16/ 19 1015.6F
28.8N   86.0W              85 85  260/ 16/ 19 1014.8F   4/ 6
PANAMA CITY BEAC           84 85  260/ 18/ 21 1013.7R
CAPE SAN BLAS    NOT AVBL
TOWER C                    84     270/ 19/ 20 1014.3F
28.5N   84.5W              85 86  260/ 17/ 21 1014.7F   4/ 6

$$
FLZ011-016>038-118-127-128-134-139-239-290000-
NORTH FLORIDA

CITY           SKY/WX    TMP DP  RH WIND       PRES   REMARKS
MARIANNA       TSTM      79  72  79 N32G49    29.95R
TALLAHASSEE    PTSUNNY   92  76  58 W10       29.92R HX 103
PERRY          MOSUNNY   84  77  79 W10G21    29.94S
CROSS CITY       N/A     88  76  67 W13       29.94S HX  99
GAINESVILLE    MOSUNNY   87  75  67 W24G30    29.92F HX  96
MAYPORT NAS    MOSUNNY   92  74  55 SW13      29.87F HX 101
JACKSONVILLE   MOSUNNY   91  73  55 SW15G23   29.87S HX  99
JAX NAS        MOSUNNY   94  74  52 SW17      29.89F HX 104
JAX CRAIG      SUNNY     91  75  59 SW13G22   29.88F HX 101
JAX CECIL      SUNNY     90  75  62 W21       29.89F HX 100
FERNANDINA BEA FAIR      91  73  55 SW13      29.85F HX 100
ST AUGUSTINE   MOSUNNY   90  72  55 SW9       29.91S HX  97

STATION/POSITION SKY/WX   TEMP    WIND        PRES    WAVE   SWELL
                          AIR SEA DIR/SP/G            HT/PER HT/PER
                          (F)     (DEG/KT/KT) (MB)    (FT/S) (FT/S)
SHELL POINT                88     220/ 15/ 18   N/A
KEATON BEACH               85     250/ 18/ 20 1013.7F
CEDAR KEY                  85     270/ 12/ 16 1014.8F
FERNANDINA                 91 87  240/ 12/ 15 1010.6F
30.7N   81.3W                 86                N/A     2/ 9
MAYPORT                    90 87  230/ 12/ 16   N/A
31.4N   80.9W              87 85  190/ 14/ 16 1010.1F   2/ 3   2/ 9
ST AUGUSTINE               87     230/  6/  9 1013.5F

$$
FLZ040-043>046-052-053-057-058-063-144-290000-
INTERIOR CENTRAL FLORIDA

CITY           SKY/WX    TMP DP  RH WIND       PRES   REMARKS
OCALA          MOSUNNY   86  70  58 W9        29.96S
LEESBURG       MOSUNNY   88  75  65 W10G20    29.96S HX  97
SANFORD        MOSUNNY   90  73  57 W13       29.94S HX  98
ORLANDO EXEC   PTSUNNY   90  74  59 W14       29.95F HX  99
ORLANDO INTL   PTSUNNY   90  72  55 W15       29.96F HX  97
KISSIMMEE      MOSUNNY   90  75  62 W13G18    29.97F HX 100
WINTER HAVEN   MOSUNNY   88  72  58 W14       29.99S
LAKELAND       MOSUNNY   90  72  55 MISG      29.99F HX  96
BARTOW         FAIR      90  72  55 SW16      29.99S HX  96
OKEECHOBEE     MOSUNNY   90  77  66 MISG      29.99S HX 102

$$
FLZ041-047-054-059-064-141-147-290000-
EAST CENTRAL FLORIDA

CITY           SKY/WX    TMP DP  RH WIND       PRES   REMARKS
ORMOND BEACH   MOSUNNY   88  75  66 SW7       29.93S HX  97
DAYTONA BEACH  PTSUNNY   88  76  67 SW7       29.93S HX  99
DELAND         MOCLDY    88  73  62 MISG      29.95R HX  96
NEW SMYRNA BEA MOSUNNY   88  75  66 SW12G17   29.94F HX  97
JFK SPACE CTR  MOSUNNY   89  77  66 W8        29.94F HX 102
TITUSVILLE     MOSUNNY   90  73  58 W6        29.95F HX  98
CAPE CANAVERAL MOSUNNY   89  77  68 W5        29.94S HX 102
PATRICK AFB    PTSUNNY   88  76  67 W3        29.95S HX  99
MELBOURNE      PTSUNNY   90  75  61 SW7       29.95F HX 100
VERO BEACH     MOSUNNY   87  77  72 SW10      29.97S HX  99
FT PIERCE      MOSUNNY   89  73  59 SW9       29.97S HX  97
STUART         PTSUNNY   91  72  52 SW12G17   30.00R HX  98

STATION/POSITION SKY/WX   TEMP    WIND        PRES    WAVE   SWELL
                          AIR SEA DIR/SP/G            HT/PER HT/PER
                          (F)     (DEG/KT/KT) (MB)    (FT/S) (FT/S)
28.5N   80.2W              83 85  170/  8/ 10 1014.6F
28.9N   78.5W              85 84  220/ 14/ 16 1014.7F   4/ 6   2/ 8
TRIDENT PIER               90 87  230/  6/ 10 1013.9R
28.4N   80.5W                 85                N/A     1/ 9
27.6N   80.2W                 83                N/A     1/ 9

$$
FLZ050-056-061-142-242-148-248-149-249-151-251-155-255-
160-260-290000-
WEST CENTRAL FLORIDA

CITY           SKY/WX    TMP DP  RH WIND       PRES   REMARKS
CRYSTAL RIVER  FAIR      86  73  66 W10G18    29.97R
INVERNESS      MOCLDY    86  72  62 SW8       29.97R
BROOKSVILLE    MOSUNNY   88  74  63 W14       29.98F HX  96
ZEPHYRHILLS    FAIR      88  72  58 W8        29.99S
CLEARWATER     PTSUNNY   86  75  69 SW13      29.99F HX  95
TAMPA INTL     PTSUNNY   87  75  67 W15       29.99F HX  96
TAMPA EXEC     PTSUNNY   88  77  70 SW5       29.99S HX 100
PLANT CITY     MOSUNNY   90  72  55 W13       30.00F HX  96
MACDILL AFB    MOSUNNY   89  78  71 W8        29.99F HX 102
ST PETERSBURG  PTSUNNY   88  74  63 W12       29.98F HX  96
SARASOTA       SUNNY     89  74  60 W12       29.99F HX  98
VENICE         FAIR      88  75  66 W10       30.02F HX  97

STATION/POSITION SKY/WX   TEMP    WIND        PRES    WAVE   SWELL
                          AIR SEA DIR/SP/G            HT/PER HT/PER
                          (F)     (DEG/KT/KT) (MB)    (FT/S) (FT/S)
CEDAR KEY                  85     270/ 12/ 16 1014.8F
28.5N   84.5W              85 86  260/ 17/ 21 1014.7F   4/ 6
27.3N   84.3W                 88                N/A     3/ 5
CLEARWATER BEACH           86 89  260/ 15/ 19 1015.3F
MIDDLE TAMPA BAY           87     290/ 13/ 16 1016.0F
VENICE                     87 91  270/ 12/ 15 1015.7F

$$
FLZ066-069-070-075>078-162-262-165-265-290000-
SOUTHWEST FLORIDA AND KEYS

CITY           SKY/WX    TMP DP  RH WIND       PRES   REMARKS
PUNTA GORDA    MOSUNNY   89  73  59 W10       30.03S HX  97
FT MYERS       MOSUNNY   89  73  59 W12       30.01F HX  97
SOUTHWEST INTL SUNNY     87  74  64 W7        30.02F HX  95
NAPLES         MOSUNNY   88  80  77 W9        30.02F HX 104
MARATHON       CLOUDY    89  76  65 VRB3      30.04S HX 100
KEY WEST NAS   PTSUNNY   89  74  60 N7        30.04S HX  98
KEY WEST INTL  MOSUNNY   89  76  65 N6        30.04S HX 100

STATION/POSITION SKY/WX   TEMP    WIND        PRES    WAVE   SWELL
                          AIR SEA DIR/SP/G            HT/PER HT/PER
                          (F)     (DEG/KT/KT) (MB)    (FT/S) (FT/S)
VENICE                     87 91  270/ 12/ 15 1015.7F
NAPLES                     86 94   CALM  /  1 1017.4F
DRY TORTUGAS               87     330/  4/  5 1017.6R
NW FL BAY                  88     290/  6/  9 1017.3F
SAND KEY                   86     360/  5/  7 1017.3F
SOMBRERO KEY               88     280/  2/  2 1018.2R
LONG KEY                   87 92  280/  4/  5 1018.0F
MOLASSES REEF              86 88  210/  9/ 10 1017.0F

$$
FLZ067-068-071>074-168-172>174-290000-
SOUTHEAST FLORIDA

CITY           SKY/WX    TMP DP  RH WIND       PRES   REMARKS
W PALM BEACH   PTSUNNY   92  71  50 W12       29.99S HX  98
FT LAUDER-EXEC PTSUNNY   90  76  63 SE10      30.00S HX 101
FT LAUDERDALE  PTSUNNY   90  75  61 SE14      30.00S HX 100
POMPANO BEACH  MOSUNNY  N/A N/A N/A S14       30.01R
PEMBROKE PINES SUNNY     90  76  63 SE13      30.01S HX 101
OPA LOCKA      MOSUNNY   92  74  55 VRB5      30.01S HX 101
MIAMI          PTSUNNY   90  76  63 S14       30.01S HX 101
WEST KENDALL   SUNNY     93  67  42 W9        30.01S HX  96
HOMESTEAD      MOSUNNY   91  73  54 VRB3      30.02R HX  99

STATION/POSITION SKY/WX   TEMP    WIND        PRES    WAVE   SWELL
                          AIR SEA DIR/SP/G            HT/PER HT/PER
                          (F)     (DEG/KT/KT) (MB)    (FT/S) (FT/S)
PORT EVERGLADES            87     160/ 11/ 16 1016.1
VIRGINIA KEY               87 90  180/ 12/ 16   N/A
LAKE WORTH                 86 85              1015.5S
FOWEY ROCKS                87 87  180/ 17/ 18 1016.9F
SETTLEMENT POINT           85     170/  9/ 11 1016.8S

$$



USA.gov is the U.S. government's official web portal to all federal, state and local government web resources and services.